RH
73 74 72 71 70 69 71 69 73 75 75 77 71 70 69 70 73 74 77 79 80 81 82 84 85 89 91 90 91 90 88 88 85 86 82 78 81 82 83 88 90 90 86 83 86 88 85 76 75 79 73 64 58 48 41 34 23 15 13 10 9 9 8 7 7 6 6 5 5 5 5 5 5 5 5 5 4 5 5 4 4 5 4 5 5 4 5 5 4 4 4 4 4 4 4 4 4
74 75 74 75 74 73 75 74 79 80 81 81 70 67 68 70 74 76 79 80 82 83 84 86 89 90 89 90 91 91 89 92 93 88 85 83 84 82 84 86 89 90 86 85 84 87 83 74 76 76 71 63 51 43 40 36 25 14 10 8 6 6 6 5 5 5 5 5 5 6 5 6 6 6 6 5 5 5 5 5 5 5 5 6 5 5 5 5 5 5 5 5 5 5 5 5 5
77 77 77 78 79 79 80 82 85 85 89 86 71 68 71 72 75 78 80 80 81 81 83 87 92 94 93 89 86 88 89 92 93 92 90 87 85 86 87 86 87 87 86 88 87 85 80 78 81 76 70 59 45 39 39 39 29 14 6 5 5 5 6 6 6 7 7 8 8 8 8 8 8 8 9 8 8 7 8 8 8 8 8 8 7 7 7 7 7 6 7 6 6 7 7 7 7
77 78 78 79 82 84 87 90 90 90 92 88 78 73 75 77 78 81 82 81 81 82 84 86 91 94 92 86 82 88 90 90 91 91 91 91 91 91 91 89 88 87 87 88 89 89 83 83 83 75 70 59 45 40 42 42 29 14 8 6 6 7 9 9 9 9 10 11 11 11 11 11 11 11 11 11 10 10 10 10 10 9 9 9 9 9 9 8 8 8 8 8 8 8 8 8 8
78 78 78 79 84 87 90 92 92 91 84 82 82 78 79 82 83 84 84 83 83 84 85 87 90 91 89 84 84 89 90 91 93 92 92 93 95 94 93 92 91 90 90 89 89 89 87 85 80 76 72 59 46 41 45 43 28 15 10 10 10 11 12 12 11 11 12 12 13 13 13 13 13 13 13 13 12 12 11 11 11 10 10 10 10 10 10 10 9 9 9 9 9 9 9 9 9
80 81 81 82 86 88 91 91 89 86 78 82 85 82 85 86 86 84 83 84 85 85 84 86 88 90 92 88 86 88 88 92 92 92 92 92 94 93 91 93 93 91 91 91 88 84 84 82 77 78 76 63 51 48 48 42 32 22 16 20 28 27 18 15 15 13 13 14 14 14 14 15 15 15 15 14 13 13 12 11 11 10 11 10 10 10 10 10 10 10 10 9 9 9 9 9 9
84 85 85 85 88 89 90 88 83 82 80 84 85 83 88 90 90 86 84 87 88 87 86 87 88 90 91 87 86 86 86 88 88 89 91 92 94 90 89 92 90 89 92 89 83 79 80 80 76 75 75 68 60 58 54 44 40 38 34 39 47 40 22 14 15 14 14 15 15 16 16 16 16 16 15 14 13 12 12 11 10 10 10 10 10 10 10 10 10 10 10 10 10 10 10 10 10
87 88 87 86 90 90 88 83 79 81 79 78 82 85 88 91 93 90 87 87 89 91 92 92 91 91 88 85 84 85 85 86 87 90 92 93 94 91 89 89 86 84 86 81 76 76 78 79 73 66 63 60 59 59 54 43 37 36 35 35 35 29 18 14 15 15 15 16 16 17 17 17 17 17 16 14 13 12 12 11 10 10 10 10 10 10 10 10 11 10 11 11 11 11 11 11 11
87 88 87 87 87 87 83 76 75 77 70 64 70 78 82 88 92 93 92 89 88 89 91 93 92 90 86 86 85 85 85 84 86 89 92 93 95 94 90 86 81 78 76 73 71 68 66 65 60 56 53 51 50 46 43 38 28 22 20 18 17 16 15 15 15 16 16 17 18 19 19 19 18 18 16 14 13 12 12 11 10 11 11 11 11 11 12 12 12 12 12 12 13 13 13 13 13
87 86 87 88 85 83 77 69 72 72 67 60 58 62 68 78 84 82 84 86 85 85 87 88 89 87 86 89 88 85 85 84 85 86 88 90 92 91 88 84 78 75 72 69 67 60 57 57 53 52 50 48 45 38 37 36 29 23 20 18 16 15 15 16 16 17 18 18 19 20 21 21 20 18 16 14 13 13 13 13 12 12 12 13 13 13 13 13 14 14 14 14 15 15 15 15 15
86 85 86 87 83 79 74 70 69 66 67 64 58 58 60 67 72 68 70 76 77 78 82 85 86 88 90 92 91 89 87 85 85 84 85 86 87 86 85 82 78 76 75 74 73 70 66 61 55 50 46 45 43 40 42 41 36 31 27 26 21 17 16 17 17 18 19 20 20 21 22 22 20 18 16 15 14 15 15 15 14 14 14 14 15 15 15 15 16 16 16 16 16 16 16 16 16
84 84 86 88 84 78 77 73 67 63 62 57 59 66 63 59 61 67 74 78 74 69 72 78 80 84 87 88 89 89 88 88 86 84 84 83 82 81 79 79 78 76 74 74 72 71 68 60 53 46 42 42 40 41 41 36 32 28 26 26 23 18 17 18 17 18 19 21 22 22 24 23 21 19 17 17 16 16 16 16 16 16 16 16 16 16 17 17 17 17 17 17 17 17 17 16 16
84 82 85 87 80 74 74 69 63 63 57 52 63 71 64 54 50 62 75 76 74 70 74 76 73 75 75 73 75 77 82 88 86 86 86 83 82 76 70 69 70 66 61 58 56 55 55 52 46 41 40 39 37 39 35 29 25 22 22 22 21 20 19 19 19 19 20 22 23 25 25 24 22 20 19 18 18 18 17 17 16 17 17 18 18 18 18 18 18 18 18 17 17 17 16 16 16
78 79 82 84 77 70 67 62 59 58 51 50 62 66 64 59 54 60 65 64 68 73 75 72 71 73 68 63 64 66 75 79 78 83 86 85 81 68 59 58 55 53 51 51 51 49 47 45 42 39 38 35 34 34 27 23 22 21 22 22 22 21 20 21 20 20 21 23 25 27 26 24 23 21 21 20 20 19 18 18 18 19 19 19 19 19 19 19 18 18 17 16 16 16 16 16 16
66 68 72 75 70 63 59 57 57 53 46 44 53 63 65 63 62 65 65 62 64 66 64 62 65 66 61 60 66 71 72 68 67 74 81 81 71 57 53 56 52 52 54 55 54 48 41 37 35 33 31 30 31 29 23 21 21 21 22 23 23 22 22 22 21 21 22 24 26 27 27 25 24 24 23 22 21 21 20 20 20 21 21 21 20 20 19 18 18 17 17 16 16 16 15 15 14
44 48 54 55 50 45 44 44 46 43 37 37 47 61 66 63 62 62 61 58 55 54 54 56 62 61 57 58 65 74 70 61 60 65 71 70 59 52 54 58 57 58 60 58 53 44 34 29 28 28 26 27 28 25 22 21 20 20 20 22 23 24 24 23 22 23 24 27 28 28 27 26 26 26 26 24 23 22 22 23 23 23 22 21 20 19 18 17 17 16 16 15 15 14 13 12 10
21 25 29 29 24 23 24 26 30 30 31 38 47 58 64 63 59 58 56 54 52 50 47 47 53 58 59 58 63 73 73 66 59 58 59 58 53 51 50 51 53 55 54 51 47 40 33 29 27 27 26 27 26 24 22 21 20 19 20 20 22 24 25 25 24 24 25 28 29 29 28 27 27 27 27 25 23 24 24 24 24 24 23 21 19 18 17 17 16 15 14 13 11 10 8 8 6
13 15 15 14 13 15 19 23 27 31 39 47 51 54 57 56 55 55 55 54 53 52 48 41 40 46 52 56 60 68 75 74 66 60 56 54 53 51 48 46 46 48 48 47 43 38 33 30 27 27 27 27 25 24 22 21 20 19 19 19 20 23 25 26 26 26 27 30 30 29 28 28 28 28 27 25 24 25 25 26 25 24 22 20 18 18 17 16 14 12 10 8 7 5 4 4 3
18 19 17 15 18 23 26 29 32 40 49 53 55 56 56 56 55 55 53 52 52 50 48 43 34 34 42 48 51 58 69 77 76 69 63 59 58 57 58 57 55 53 51 49 44 37 31 28 27 27 28 27 25 24 23 22 21 20 20 20 21 22 25 27 28 28 29 31 31 29 29 29 30 29 27 25 26 27 27 27 25 23 20 19 19 18 16 13 10 7 5 4 4 3 3 3 3
24 24 20 19 26 29 29 30 32 35 38 40 46 49 49 50 49 49 49 49 49 46 44 41 29 27 35 41 44 48 57 70 80 79 73 69 67 66 67 67 67 67 63 54 44 36 30 26 26 27 28 26 25 24 22 21 22 22 21 22 22 23 26 28 29 30 30 32 32 30 30 31 31 29 26 26 27 28 28 26 23 21 20 19 18 16 12 8 5 4 3 3 3 3 3 3 3
24 24 22 26 31 30 29 33 33 32 32 32 34 32 29 30 30 31 33 34 31 28 30 31 24 21 26 31 36 40 44 54 69 81 83 79 76 75 74 73 74 76 70 55 41 33 28 25 24 25 26 26 25 23 22 22 23 23 23 23 24 25 27 30 31 31 32 32 32 32 32 33 32 29 27 27 28 29 27 24 22 20 20 19 16 12 7 4 3 3 3 3 3 3 3 3 3
24 23 24 28 30 30 32 36 38 37 37 37 36 31 23 18 18 17 18 17 13 13 17 21 20 19 20 22 24 29 36 42 50 63 77 83 84 82 81 80 79 75 64 50 39 33 27 25 24 24 25 25 25 24 24 23 24 26 26 26 26 26 28 31 33 33 34 33 33 33 34 34 32 28 28 29 29 28 25 23 21 20 20 17 12 7 3 3 3 3 3 3 3 3 3 3 3
26 25 27 30 30 31 34 38 41 40 40 38 38 35 25 17 15 15 14 11 9 11 14 15 16 17 17 18 18 19 25 33 39 45 54 67 76 80 82 83 81 74 63 51 40 32 27 24 23 23 24 26 27 26 26 26 27 29 29 28 28 27 28 31 34 35 34 34 34 35 35 34 30 29 29 30 29 26 24 22 21 20 18 13 7 3 2 3 3 3 3 3 3 3 3 3 2
27 25 27 30 32 33 36 40 42 41 40 38 37 32 23 16 14 14 12 10 11 13 13 13 14 14 15 16 16 17 17 22 30 37 41 47 55 63 68 69 69 65 57 48 37 30 26 24 23 22 24 28 30 30 30 30 31 32 31 29 28 28 28 30 33 34 33 33 35 35 35 32 30 30 30 30 27 24 23 22 21 19 13 7 3 2 3 3 3 3 3 3 4 3 3 3 3
27 27 29 32 33 34 37 40 41 40 38 36 33 25 17 15 14 13 11 11 13 15 14 13 13 13 14 14 15 17 18 17 21 29 35 38 41 44 46 46 45 45 42 38 33 29 26 24 23 22 24 28 33 34 34 33 33 33 31 29 29 29 28 29 31 32 32 33 34 34 33 32 31 31 31 28 25 23 23 22 20 15 8 3 2 3 3 3 3 3 4 3 3 3 3 3 3
26 27 29 29 30 33 36 38 39 37 34 31 24 18 15 16 16 13 11 13 16 17 16 14 14 13 13 14 15 16 18 18 18 21 28 35 37 37 37 37 37 36 36 35 32 28 25 24 23 23 24 27 33 37 36 34 33 33 31 31 30 28 28 29 29 30 30 31 32 32 32 32 32 31 30 27 24 24 23 21 16 9 4 2 2 3 3 3 4 3 4 4 3 4 4 4 4
23 25 26 26 26 28 30 31 31 29 26 23 18 16 16 16 16 13 11 16 19 18 17 16 16 15 15 15 15 16 17 18 19 21 24 28 29 29 31 33 32 33 34 33 30 27 25 24 23 24 25 27 31 34 34 33 33 33 31 30 29 27 29 29 28 28 28 29 30 30 31 32 32 31 28 25 24 24 23 18 10 4 2 3 3 3 3 3 4 4 4 4 4 4 4 4 4
20 21 22 22 22 22 22 22 22 21 20 18 17 18 17 18 16 13 16 20 20 19 18 18 16 16 16 16 17 17 17 17 19 21 21 21 21 24 27 29 29 31 31 29 27 26 25 24 24 25 26 27 28 30 31 32 33 33 31 29 28 28 29 28 27 27 27 28 28 29 31 32 32 31 27 25 25 25 21 12 5 2 2 3 3 3 4 4 4 4 4 4 4 4 4 5 5
20 20 20 20 19 20 19 18 18 17 18 19 22 21 17 17 16 16 21 22 19 18 17 16 16 16 16 16 16 17 17 18 19 19 19 20 22 25 26 28 29 29 28 28 27 25 24 24 25 26 26 26 26 27 29 30 32 33 32 29 29 30 30 28 27 26 26 26 27 28 30 31 31 29 27 25 25 24 17 7 2 3 3 3 3 3 4 4 4 4 4 5 4 5 5 5 5
19 18 17 17 16 17 16 17 18 20 23 24 28 27 14 11 16 18 20 19 17 16 14 14 13 14 15 14 14 14 16 18 18 20 21 22 24 25 26 27 28 27 27 27 26 24 25 25 25 26 26 25 25 27 28 30 32 33 33 31 31 32 31 30 27 26 25 25 26 28 29 29 29 28 27 26 25 21 12 5 2 3 3 3 3 4 4 4 4 4 4 5 5 5 5 5 6
16 16 16 16 16 16 17 19 21 24 27 27 33 31 13 6 12 14 15 16 15 13 10 9 8 7 8 8 9 10 12 14 17 20 22 23 24 25 25 26 26 26 26 25 24 25 25 25 26 26 26 26 26 27 28 30 33 35 35 34 34 34 33 31 28 25 25 25 26 27 28 28 28 27 27 26 24 18 8 3 3 3 3 3 3 4 4 4 4 5 5 5 5 5 6 6 6
16 17 16 17 18 19 19 23 25 27 31 30 33 30 11 2 6 8 10 10 9 7 5 4 3 3 3 3 3 4 6 9 12 16 19 22 23 24 24 25 25 25 25 25 25 25 25 25 26 27 28 28 28 28 29 31 34 36 36 35 35 35 34 31 28 25 25 26 26 26 27 26 27 27 27 27 23 14 6 3 3 3 3 3 4 4 4 4 4 4 5 5 5 5 6 6 6
17 18 19 20 21 22 19 20 22 24 25 23 24 20 7 1 3 4 5 5 5 4 3 3 3 2 2 2 2 2 3 4 6 8 12 15 18 20 21 22 23 24 25 25 26 25 26 27 29 30 30 29 30 30 31 33 34 35 36 37 36 36 34 31 28 26 24 25 26 25 26 25 26 26 26 24 19 11 5 3 3 3 3 3 4 4 4 4 4 5 5 5 5 5 6 6 6
19 21 23 22 22 22 17 13 14 16 15 13 14 12 4 2 4 4 4 4 4 4 4 4 3 3 2 2 2 1 1 2 2 3 5 7 10 12 15 17 18 20 21 23 24 25 26 28 29 31 32 31 32 32 33 34 34 35 37 37 37 36 34 31 28 24 23 24 25 25 25 25 25 24 23 20 15 10 6 4 3 3 3 3 4 4 4 4 4 5 5 5 5 5 5 6 6
22 24 24 20 18 17 12 10 11 11 10 9 9 7 4 4 5 5 5 5 5 5 5 5 4 3 3 3 3 2 2 1 1 1 2 3 4 6 8 10 12 14 15 16 19 21 23 24 26 29 30 31 32 33 34 34 35 36 37 37 36 33 32 29 26 23 22 24 26 26 26 25 25 23 21 18 13 9 6 4 3 3 3 3 4 4 4 4 4 5 5 5 5 5 5 5 5
20 21 21 19 14 9 6 9 10 8 8 6 6 6 5 5 6 6 6 6 6 6 5 5 5 5 5 4 3 2 2 1 2 2 2 2 2 2 3 5 6 7 8 9 11 14 16 18 20 21 23 28 32 34 34 34 35 34 35 34 32 30 29 27 25 23 24 26 27 28 28 26 25 22 19 15 11 8 5 4 3 3 3 3 4 4 4 4 4 5 5 5 5 5 5 5 5
16 19 18 15 11 6 5 8 8 7 7 6 6 6 5 6 6 7 7 7 7 6 6 5 5 5 4 4 3 3 3 2 3 3 3 3 2 2 2 2 3 3 3 3 4 6 8 11 13 14 18 25 28 30 31 32 32 32 33 32 31 31 31 28 26 26 27 29 30 30 29 28 25 21 16 12 8 6 4 3 3 3 3 4 4 4 4 4 4 4 5 5 5 5 5 5 5
17 18 14 7 6 5 5 7 7 8 9 7 6 6 6 7 7 7 8 9 8 8 7 6 5 5 5 4 5 5 5 4 4 4 4 3 3 2 2 2 2 2 2 2 3 3 5 7 9 11 16 20 20 23 27 28 29 31 33 32 33 33 30 27 26 28 30 30 30 29 28 27 23 18 12 8 6 4 4 3 3 3 3 3 4 4 4 4 4 4 4 4 4 5 5 5 5
11 10 7 4 4 5 5 7 8 10 10 7 6 6 7 7 7 8 9 8 8 8 7 7 7 6 6 6 6 7 6 5 5 5 4 3 3 3 2 2 2 2 2 2 3 3 4 4 5 8 10 12 13 16 19 19 23 29 31 31 31 30 27 25 26 27 28 27 25 24 23 22 19 15 10 6 5 4 3 3 3 3 3 3 3 3 4 4 4 4 4 4 5 4 5 5 5
5 4 4 4 3 4 6 7 8 9 8 6 6 7 8 7 7 8 9 9 7 7 7 8 9 8 7 6 6 7 6 6 6 6 6 6 6 5 5 4 3 3 4 4 4 3 3 3 4 5 6 7 9 11 12 14 19 24 25 25 24 23 20 20 21 21 20 20 20 20 19 18 16 14 11 9 7 7 6 5 5 4 4 3 3 3 3 4 3 4 4 4 4 4 5 5 6
3 3 3 3 3 5 6 6 6 5 6 8 9 9 8 7 9 9 9 9 7 7 9 9 9 9 8 7 6 6 6 7 7 6 7 8 7 7 7 6 5 5 5 4 4 4 4 4 4 4 5 5 6 7 9 12 15 16 16 16 15 14 13 13 13 13 15 18 21 22 22 22 20 18 17 16 14 12 11 9 7 5 4 4 4 4 3 4 4 4 4 4 4 5 5 6 6
3 4 5 5 6 6 5 5 5 4 6 9 11 16 15 7 8 9 8 10 8 8 9 9 9 8 7 8 7 7 7 7 7 7 7 8 7 7 7 6 7 6 6 6 5 5 6 5 5 5 5 4 4 5 7 9 10 10 11 10 9 9 9 9 9 12 17 21 24 27 28 27 25 21 19 17 15 14 12 11 10 8 7 7 6 6 5 4 4 4 4 4 4 5 6 8 8
4 5 6 7 7 7 6 4 5 5 6 7 9 19 21 10 6 9 9 9 9 9 10 8 8 8 6 7 7 7 7 7 7 7 8 8 8 8 8 8 9 9 8 8 8 9 9 8 8 8 7 7 6 6 6 7 7 7 8 7 8 8 7 7 9 13 17 21 24 26 27 25 24 21 19 18 17 17 17 17 17 16 16 15 14 13 12 11 10 10 10 11 12 15 17 18 20
5 5 6 6 6 6 5 4 6 5 6 8 10 18 26 18 8 9 10 9 9 9 10 9 7 8 7 7 7 7 7 7 7 8 8 9 10 9 10 10 10 11 10 10 10 11 10 10 10 10 10 10 10 9 8 7 7 7 7 7 8 7 7 7 10 13 15 18 20 21 23 24 23 23 22 22 21 22 23 23 24 25 25 25 25 25 24 24 24 24 25 25 27 29 30 31 32
6 5 6 6 5 6 6 6 7 7 13 17 14 19 30 25 9 7 11 8 9 10 10 11 9 8 9 8 8 7 7 7 7 8 9 9 9 9 9 9 9 10 10 11 11 11 11 11 11 11 12 12 12 12 11 11 10 9 8 8 8 8 8 9 11 12 13 14 15 17 20 21 23 25 25 26 27 27 28 29 29 30 29 30 30 30 31 31 32 32 33 33 34 34 35 36 34
7 7 7 6 7 6 5 8 10 16 28 25 15 17 28 25 9 7 11 9 9 10 9 11 10 9 9 10 10 9 8 8 7 8 9 9 9 8 9 9 9 9 10 11 11 11 12 11 12 12 12 13 13 13 13 13 12 11 10 9 9 8 8 9 11 12 12 12 12 14 17 19 22 24 26 28 29 30 31 31 31 31 31 33 32 33 33 33 34 34 35 35 36 36 36 36 36
9 8 9 7 8 7 8 16 20 30 39 25 13 17 25 28 15 6 9 9 9 10 9 11 11 10 10 10 11 11 10 9 8 8 8 9 9 9 9 10 11 10 10 10 10 11 12 12 13 13 14 14 14 14 15 14 14 13 12 11 10 9 9 9 9 10 10 11 11 12 14 15 17 19 21 23 24 25 26 26 26 26 27 28 28 29 30 32 34 36 36 37 36 36 37 37 37
10 10 11 8 9 9 12 22 27 38 44 26 17 22 28 32 20 6 8 9 9 10 10 10 10 11 11 10 11 11 11 11 9 9 8 9 9 9 10 11 12 12 12 11 11 11 11 12 13 14 15 16 16 17 16 16 16 16 15 14 13 12 11 10 9 9 9 9 10 10 11 11 12 13 14 14 15 16 17 16 17 18 18 18 18 19 20 22 25 27 28 28 28 29 32 34 33
11 12 11 11 18 16 19 34 36 37 37 23 22 32 34 29 14 7 9 9 9 10 9 10 11 11 11 10 11 10 11 12 11 10 9 9 10 9 10 10 11 12 13 13 13 12 12 12 13 13 15 17 17 18 18 18 18 18 18 17 16 16 15 15 14 13 12 11 10 10 10 10 10 10 11 11 12 12 12 12 12 13 13 13 13 14 14 15 16 17 18 18 19 20 23 27 28
12 13 11 14 20 19 29 45 38 30 28 20 24 37 35 23 10 9 10 8 10 10 10 11 11 11 11 11 11 11 11 12 11 11 10 10 10 10 11 10 11 12 14 14 15 14 13 13 13 14 16 19 19 19 20 20 20 20 20 19 19 18 18 17 17 16 16 15 14 14 14 14 14 15 16 16 17 17 17 17 17 17 17 17 17 17 17 17 16 16 16 16 16 16 16 18 18
14 14 13 14 15 12 26 40 31 24 26 23 24 30 26 16 10 10 10 9 11 10 11 12 11 12 12 11 12 11 11 11 11 11 11 11 11 11 11 10 11 12 13 15 15 15 14 14 15 15 18 20 20 20 21 21 22 23 23 22 21 21 20 20 19 19 19 18 19 19 19 20 20 20 21 22 22 23 23 24 24 25 25 25 26 26 26 25 25 24 24 23 23 22 20 19 18
17 17 16 16 15 11 17 24 19 20 29 30 25 20 15 11 11 11 10 11 12 12 12 12 12 13 12 12 13 12 12 12 12 12 12 12 12 12 11 11 11 13 15 17 17 17 16 16 17 17 20 23 22 22 23 24 25 25 25 25 24 24 23 23 23 23 23 23 24 24 24 24 24 24 25 26 27 28 29 30 31 31 32 33 33 33 33 33 33 33 33 33 32 32 31 30 29
17 19 18 17 16 14 15 17 17 21 31 31 21 15 14 13 14 14 13 13 13 13 13 13 13 13 12 13 13 13 13 13 14 14 13 14 14 14 14 12 12 15 19 21 21 21 20 19 19 20 22 25 25 24 24 25 26 27 28 28 28 28 27 27 27 27 27 27 27 27 27 28 28 29 30 31 32 33 34 35 35 36 36 36 36 36 37 37 37 37 37 37 37 38 38 37 38
17 18 18 17 17 18 18 20 24 30 36 33 20 17 19 17 17 18 16 16 15 14 14 13 13 13 12 14 14 14 15 15 16 15 15 16 16 15 15 14 15 20 25 27 27 26 25 23 23 23 25 27 27 26 25 26 27 28 28 29 29 29 29 29 28 28 29 29 29 30 31 31 32 34 35 36 37 37 37 38 37 38 38 38 38 38 39 39 40 40 39 40 40 41 41 41 41
17 19 20 19 20 24 22 21 27 34 40 40 31 22 21 23 27 28 23 19 17 16 16 16 15 14 14 15 15 16 16 16 16 15 15 18 19 17 16 15 18 24 28 30 30 29 28 27 26 26 28 30 30 29 28 29 30 30 31 31 31 31 30 30 29 29 30 30 30 31 32 32 34 37 38 39 40 39 39 40 39 39 40 40 40 41 42 43 44 44 44 44 44 45 45 44 45
15 18 22 22 22 25 24 22 26 30 33 41 40 29 25 32 37 37 31 25 23 22 21 19 18 18 17 17 17 17 17 17 16 15 16 18 21 20 17 17 21 26 30 31 32 32 31 30 30 31 32 32 33 32 32 34 35 35 36 36 36 36 36 35 35 35 35 34 34 35 35 36 37 38 40 40 41 41 41 42 42 42 42 43 44 44 46 48 49 49 48 49 49 50 50 49 49
15 18 21 23 23 24 26 24 24 24 30 43 49 39 31 35 39 37 32 30 30 28 26 25 23 22 21 21 20 19 19 19 18 18 17 18 20 20 19 23 26 29 32 33 34 36 36 36 36 36 37 37 37 37 37 38 39 39 40 40 40 40 39 39 38 38 38 38 38 39 40 41 41 41 42 43 43 44 44 45 45 46 47 47 48 48 49 52 52 51 52 53 54 55 55 53 54
16 19 21 22 23 24 29 32 26 22 29 39 43 39 35 35 35 33 31 33 35 33 32 31 29 29 28 26 26 26 26 27 25 23 23 22 24 26 27 30 32 33 36 38 40 41 41 41 41 41 42 42 42 43 43 43 44 44 44 43 42 42 41 40 40 40 40 40 41 43 44 45 45 44 45 46 45 46 47 48 49 50 50 51 51 51 53 55 56 55 56 57 58 59 59 58 59
Wind_Speed
18 19 19 19 20 19 18 18 16 17 17 19 21 21 20 19 19 19 18 16 16 16 15 15 15 16 17 19 20 20 20 19 19 19 18 15 12 12 14 19 23 22 22 24 26 27 25 22 22 22 21 18 13 9 8 8 7 8 9 10 10 10 11 10 9 8 8 7 7 7 8 7 7 7 7 7 7 7 9 10 9 10 10 11 11 11 12 12 12 12 12 12 12 12 12 12 12
19 20 20 20 21 20 19 19 16 18 18 20 24 22 22 21 20 19 16 15 15 15 15 15 15 17 17 18 19 19 20 20 21 21 20 18 16 15 13 16 21 22 21 22 25 27 25 22 22 22 21 17 11 9 9 8 8 8 10 11 10 9 10 9 8 7 8 8 7 8 8 8 8 8 8 9 9 10 11 11 11 11 11 12 12 12 12 12 13 13 13 13 12 12 12 12 12
18 18 19 18 20 20 19 18 16 17 17 21 25 22 22 21 19 17 15 15 15 15 15 14 15 16 16 17 18 19 19 19 21 21 21 20 18 17 14 14 19 22 21 20 22 24 25 23 21 20 19 14 11 11 10 9 8 8 9 9 9 9 9 9 8 8 9 8 8 9 9 9 9 9 10 11 12 12 12 12 12 12 12 12 12 12 13 13 13 13 13 13 12 12 12 12 12
14 13 14 15 16 17 17 18 18 18 20 23 23 20 19 18 17 16 15 15 15 15 14 13 14 15 16 17 17 17 18 18 19 20 20 20 19 18 16 14 17 21 22 21 20 22 25 24 21 19 16 13 13 14 13 12 10 9 9 8 9 10 10 10 10 11 10 10 10 10 11 11 11 11 11 12 12 12 12 12 12 12 12 12 12 12 12 12 12 12 12 12 12 12 12 11 12
8 7 8 10 12 14 14 16 17 19 21 21 21 20 18 16 16 17 16 16 14 14 13 12 14 14 15 16 16 17 17 17 18 18 17 18 19 19 18 17 16 18 21 22 22 22 24 23 20 18 15 14 15 15 14 12 10 10 9 9 10 12 13 13 14 13 12 11 11 12 11 11 12 12 12 13 13 13 13 12 12 12 11 11 12 12 11 12 12 11 11 11 11 11 11 11 11
7 6 6 7 9 10 12 15 17 19 18 18 21 20 18 17 17 16 15 15 13 12 12 11 13 13 14 15 16 17 17 16 17 16 15 17 19 20 19 19 18 18 20 21 20 19 20 20 19 19 17 15 13 13 14 12 10 11 10 10 11 13 16 16 16 16 14 13 13 13 13 13 13 12 12 13 13 13 13 13 12 12 11 12 13 11 11 12 11 11 11 11 11 11 12 12 12
8 8 8 8 9 10 13 16 16 17 16 15 17 16 15 15 15 13 12 12 11 11 11 11 12 13 15 16 16 17 17 17 17 16 15 17 20 20 19 20 19 18 19 19 17 16 17 17 18 18 17 15 13 13 14 12 12 14 14 14 13 15 18 17 16 16 15 15 15 15 14 14 13 13 13 13 13 13 13 13 12 11 11 12 13 12 12 12 12 12 12 12 12 12 12 12 12
7 8 9 8 10 11 13 15 13 13 12 10 11 11 11 12 13 13 11 10 10 10 10 11 12 15 17 16 16 16 16 17 17 17 17 18 19 19 19 19 19 18 18 17 17 16 17 18 18 17 15 14 14 15 15 14 15 16 17 17 16 17 18 18 16 16 16 16 15 15 15 15 14 13 13 13 12 13 13 13 12 12 12 13 13 13 13 13 13 13 13 13 13 13 13 13 14
7 8 9 8 10 11 13 13 11 10 8 6 6 6 7 9 12 14 14 13 12 12 12 11 12 16 17 16 16 16 16 17 17 18 18 19 19 19 19 19 20 19 19 18 18 17 17 17 17 16 15 13 13 14 15 16 18 18 18 17 17 18 18 18 17 17 17 16 16 16 15 15 15 14 14 14 13 13 13 13 13 12 12 13 14 14 14 14 14 14 15 15 14 14 14 14 15
8 8 9 9 11 12 13 12 10 8 6 5 5 5 5 6 7 8 10 12 12 13 14 14 14 16 17 17 18 17 16 16 17 18 18 19 19 19 19 19 19 20 20 19 18 18 17 15 15 16 15 14 15 15 16 17 18 17 16 16 17 19 19 18 18 17 17 17 17 16 16 16 15 15 15 14 14 13 14 14 14 14 14 14 15 15 15 15 16 16 15 15 15 15 15 15 15
10 10 9 11 13 14 14 12 11 9 8 8 6 6 6 5 6 5 5 7 8 9 10 12 14 16 16 17 18 18 18 17 17 17 18 19 19 19 19 20 21 20 20 20 20 20 19 16 15 17 16 16 16 16 17 18 19 18 17 17 17 19 19 19 19 18 17 17 17 17 17 17 16 16 16 15 15 15 15 16 15 15 15 16 16 16 16 16 16 16 16 16 16 16 16 16 16
12 12 11 12 15 15 15 15 13 11 10 10 8 9 9 8 7 6 6 8 8 7 6 8 10 11 14 15 15 17 18 18 17 17 18 19 19 18 17 20 21 20 19 19 19 18 18 17 17 18 18 18 17 18 19 20 20 19 18 17 17 19 20 20 19 19 19 18 17 17 17 17 17 17 16 16 16 16 17 18 18 17 17 16 16 17 17 17 17 17 17 17 17 17 17 17 17
13 13 13 14 16 16 16 16 13 12 12 10 10 10 10 9 7 7 9 10 9 8 7 8 9 9 11 12 12 13 14 16 17 19 20 20 19 18 16 17 18 18 17 17 17 16 17 18 20 20 20 20 20 21 21 21 21 19 19 18 18 19 20 20 20 19 20 19 18 17 17 17 17 17 17 18 18 18 18 18 19 18 17 17 17 17 17 18 18 18 18 18 18 18 18 17 17
13 14 14 15 16 17 16 16 14 14 13 9 11 11 11 10 9 9 10 10 10 10 10 12 12 12 13 11 10 10 10 13 15 18 20 20 19 18 17 16 17 17 17 17 17 18 19 20 22 21 21 21 21 22 22 21 20 20 19 19 20 20 20 21 21 21 21 20 19 18 18 18 18 18 18 19 19 18 18 18 19 18 18 18 18 18 18 18 19 19 19 19 18 18 18 17 17
15 16 16 17 19 19 18 18 17 17 15 11 11 11 10 10 10 10 11 11 11 11 13 14 15 15 14 12 11 10 11 13 13 15 18 19 19 19 19 19 19 19 19 20 19 19 20 21 21 21 21 21 21 22 21 20 20 20 20 20 21 21 21 22 22 22 22 20 20 20 19 19 19 19 19 19 20 19 18 18 18 18 18 18 18 19 19 19 19 19 19 18 18 18 17 17 17
17 17 17 19 20 20 19 19 17 17 16 12 11 10 10 9 9 10 10 11 12 12 14 16 17 17 16 14 13 14 16 16 14 15 17 19 20 20 20 21 21 21 21 21 20 20 20 20 20 21 21 21 22 21 21 20 21 21 21 21 21 22 22 23 23 23 22 21 22 22 20 20 20 20 20 19 20 19 19 19 19 19 19 19 19 19 19 18 18 18 18 18 18 17 17 17 17
16 16 17 20 21 19 18 16 16 16 14 12 11 10 10 9 10 11 12 14 15 15 16 17 18 19 18 18 18 18 19 19 17 18 19 21 22 21 21 20 21 20 21 21 20 21 21 20 20 20 21 22 22 21 21 22 22 22 22 22 22 23 23 23 24 24 23 22 23 23 21 21 21 21 21 20 20 19 19 19 19 20 20 20 19 19 18 18 18 17 17 17 17 17 17 17 17
15 15 17 19 18 17 15 14 15 14 13 11 11 11 11 11 13 14 16 17 18 19 18 18 19 19 19 20 21 21 22 22 21 20 21 23 24 23 21 20 20 20 21 21 22 22 21 21 20 21 21 22 22 22 23 23 23 23 23 23 23 24 24 24 24 24 23 23 24 23 22 22 22 23 22 21 20 20 20 20 21 20 20 19 18 18 18 17 17 17 17 17 17 17 17 17 17
14 14 17 18 16 15 13 12 13 13 13 12 12 13 15 16 17 19 21 21 21 23 21 20 21 20 20 19 20 22 23 25 26 25 24 25 25 24 23 22 22 22 22 23 23 22 22 21 21 21 22 23 24 24 25 24 24 23 24 23 23 24 24 24 25 25 24 24 25 24 23 23 23 23 23 22 21 20 21 21 21 21 20 19 18 18 17 17 17 17 17 17 17 17 17 18 18
14 15 18 16 13 13 11 11 12 13 14 15 16 18 19 20 22 24 25 25 26 27 24 23 22 20 21 21 21 22 23 25 28 29 28 27 27 27 26 26 26 26 25 25 24 24 23 23 23 22 23 25 25 25 25 25 24 24 24 24 24 24 24 25 25 25 25 25 25 25 24 24 24 24 23 22 21 21 22 22 21 21 19 19 18 18 17 17 17 17 17 17 17 17 18 19 19
15 18 19 15 14 14 11 11 13 14 16 18 19 22 22 23 25 27 27 28 28 26 23 23 22 20 21 24 24 24 25 26 28 30 31 31 30 30 29 29 29 28 28 28 27 26 26 25 24 23 24 25 25 26 26 26 25 25 25 25 25 25 25 25 26 26 26 26 25 25 24 24 24 24 23 22 21 22 22 22 21 21 20 19 19 18 18 18 17 17 17 17 18 19 19 20 20
18 18 18 16 16 16 14 14 17 18 20 21 22 24 25 25 27 26 27 29 25 21 20 22 22 21 22 24 25 27 27 27 27 29 31 33 33 33 33 32 31 31 30 30 29 28 27 26 25 24 24 26 27 27 27 27 27 26 26 26 25 25 25 26 26 26 27 26 26 24 24 24 24 23 22 22 22 22 23 22 21 21 20 20 20 19 18 18 18 18 18 18 19 20 20 20 19
18 18 17 17 17 17 17 17 19 21 23 24 25 27 28 28 29 28 29 27 21 20 20 21 22 23 24 25 26 28 29 29 28 28 29 31 33 33 34 33 33 32 32 31 30 29 28 27 26 25 25 26 28 28 28 28 28 27 27 27 26 26 26 26 26 26 27 27 25 24 24 24 24 23 22 22 22 22 23 22 22 22 21 21 20 19 19 18 18 19 19 20 20 20 20 19 18
19 19 18 18 18 18 18 19 21 23 24 26 28 30 30 31 31 31 30 25 21 21 22 22 24 24 25 26 27 27 28 29 29 28 29 30 31 32 33 34 34 34 34 32 31 31 29 27 27 26 25 25 27 29 30 30 29 29 29 27 26 26 26 25 26 26 26 26 25 24 23 24 23 23 23 22 23 22 22 22 22 22 22 21 21 20 19 19 19 20 20 21 21 20 19 19 18
20 20 19 19 19 19 20 21 22 24 26 28 31 32 31 30 32 32 28 23 22 23 23 24 25 25 25 26 26 26 27 28 29 29 30 31 31 33 34 35 34 34 33 32 32 31 29 28 28 27 26 26 27 29 31 30 30 30 29 28 27 26 24 24 25 25 25 25 24 23 23 23 23 23 23 23 22 22 22 22 23 23 22 22 21 21 20 20 21 21 21 21 21 20 19 19 19
19 19 19 19 20 20 21 22 24 27 29 31 33 31 30 29 32 32 25 21 21 22 23 23 24 24 25 25 26 26 26 27 27 29 30 31 33 35 35 35 35 34 32 31 32 31 29 29 29 28 27 27 28 30 31 31 30 30 29 28 27 26 23 23 24 24 25 25 25 24 23 24 24 23 23 23 22 22 23 23 23 23 22 22 22 22 22 21 22 22 22 21 21 20 20 20 20
20 20 21 21 22 23 25 26 27 30 30 31 32 30 29 29 33 32 23 21 22 23 24 23 23 23 23 24 26 27 28 27 27 28 31 32 34 35 35 35 34 32 31 32 31 30 30 30 29 28 28 29 29 30 31 31 31 30 29 28 27 25 23 24 24 24 25 25 25 25 24 24 24 24 24 23 22 23 23 23 24 23 23 23 23 23 23 22 22 22 22 21 21 21 21 21 21
21 22 23 23 24 25 26 27 28 29 29 30 30 31 30 30 34 29 19 20 24 24 24 24 24 23 23 25 25 27 28 28 29 31 32 33 33 33 33 33 32 32 32 31 30 31 32 30 29 29 29 30 30 31 31 32 31 30 29 28 26 25 25 25 25 26 26 26 27 26 25 25 25 24 24 23 23 23 23 24 24 24 24 24 24 24 23 23 23 22 22 22 22 22 22 22 22
19 21 22 23 24 25 25 25 26 27 27 27 27 31 33 31 31 25 18 22 25 24 24 24 25 24 25 26 26 28 27 28 31 33 34 33 32 32 32 32 32 33 33 32 33 34 33 31 30 30 30 31 32 32 32 32 31 31 30 28 26 27 27 27 28 28 28 28 28 28 26 25 25 24 24 24 24 24 24 25 25 25 25 25 25 24 24 23 23 23 23 23 23 23 23 24 24
20 22 24 24 25 25 24 23 23 23 23 24 23 31 36 30 27 23 21 24 25 25 25 25 27 27 27 28 28 29 28 30 32 32 32 32 32 32 33 32 33 35 34 35 36 35 34 32 32 31 32 32 32 32 32 32 31 30 29 28 27 28 29 29 30 30 30 30 30 29 27 26 25 25 25 25 25 25 25 25 25 26 26 26 25 25 25 24 24 24 24 24 24 24 25 25 25
22 23 24 24 24 23 21 19 21 21 22 23 22 30 38 29 24 23 23 25 26 28 28 27 28 28 29 30 31 31 30 31 32 31 32 32 33 34 34 33 34 36 36 37 37 35 35 34 32 32 31 31 31 32 32 31 30 30 29 28 28 29 31 31 31 31 30 31 31 29 27 26 26 25 26 26 26 26 25 25 25 26 27 27 27 26 26 25 25 25 25 25 25 26 26 26 27
22 22 22 22 22 22 21 19 21 21 21 24 22 29 36 28 22 22 24 26 28 28 27 27 27 26 28 29 30 32 32 33 34 34 34 34 35 35 35 34 35 36 37 37 36 36 36 35 33 32 31 31 31 31 31 31 30 30 30 30 31 32 33 33 32 32 31 31 31 30 27 26 26 26 27 27 27 26 26 26 27 28 29 29 28 28 27 27 27 27 27 26 27 27 27 28 29
20 20 21 21 21 23 23 20 20 21 23 26 26 30 34 26 21 22 23 24 26 27 27 27 27 27 28 29 30 31 31 32 34 35 36 36 36 36 37 36 36 37 37 37 37 38 38 36 34 33 31 30 30 30 31 31 31 31 31 32 33 33 34 33 32 33 33 32 31 29 28 27 27 27 28 28 28 28 28 28 28 29 30 30 30 30 29 28 28 28 28 28 28 28 29 30 31
17 17 19 21 21 23 24 22 21 22 24 27 28 31 32 26 23 22 21 24 26 28 27 27 27 28 28 29 30 30 30 29 29 30 32 35 36 37 38 38 38 39 39 39 39 39 38 37 36 34 33 31 31 31 31 32 32 32 33 34 35 35 34 33 33 33 32 31 31 29 28 28 28 28 29 29 29 29 29 30 30 30 31 31 32 31 31 30 30 30 30 30 30 31 31 32 33
16 17 20 22 23 23 23 22 22 22 24 26 27 30 31 28 24 21 21 25 28 28 28 28 29 28 27 28 28 28 28 26 24 25 27 30 33 34 36 37 38 39 40 40 40 39 39 39 38 37 35 33 32 32 32 32 34 35 36 36 37 36 34 32 32 31 31 30 30 29 29 29 29 29 30 31 31 31 31 32 32 32 33 33 33 33 32 31 31 31 32 32 33 33 34 34 35
18 18 20 23 24 24 20 20 22 22 25 26 25 29 32 29 25 22 20 22 25 26 26 27 27 27 26 25 25 23 23 20 18 21 24 26 28 30 32 34 35 37 37 38 38 38 38 39 39 37 35 34 33 32 33 34 35 36 37 37 37 35 32 31 30 29 29 29 29 29 30 30 31 31 32 33 33 33 33 33 33 34 34 34 33 33 32 32 33 33 34 34 35 35 35 36 36
17 19 21 23 25 22 17 19 21 20 24 25 24 30 33 29 26 19 15 18 22 23 23 23 22 22 22 21 20 20 19 16 15 20 22 23 25 26 28 29 30 32 32 33 33 34 34 35 36 35 34 34 33 33 34 35 35 36 36 36 34 32 31 30 30 29 29 28 29 30 31 32 33 34 34 35 35 34 34 34 34 34 34 34 33 33 33 34 35 35 35 36 36 37 37 37 38
17 19 21 21 21 20 18 18 19 19 22 25 27 32 32 28 21 15 15 20 21 21 21 19 18 18 19 20 21 21 20 18 18 20 20 20 20 21 22 23 24 25 25 26 26 27 29 30 31 31 32 33 33 33 34 34 35 35 35 34 32 32 32 32 31 30 30 30 32 33 34 35 36 36 35 35 35 34 34 34 34 34 34 34 34 34 34 35 36 36 36 37 37 38 38 39 40
17 18 21 20 18 20 19 17 18 19 23 27 29 32 32 25 16 14 17 20 18 17 17 15 15 16 16 19 20 20 19 17 16 16 16 17 17 18 19 18 18 18 19 20 20 22 23 25 26 27 29 30 30 31 32 32 33 33 33 33 33 33 33 33 32 32 33 34 36 37 37 36 36 36 35 34 34 34 34 34 33 34 35 35 35 36 36 36 37 37 38 38 39 40 40 40 40
16 17 19 19 17 19 20 20 21 22 25 29 28 32 33 21 14 16 16 17 16 12 14 15 16 16 15 16 17 16 15 12 12 13 14 17 18 18 18 16 16 16 17 18 17 18 19 20 22 23 25 26 27 28 29 30 31 32 33 34 34 35 35 35 35 35 35 36 37 36 35 35 34 34 33 34 34 34 34 34 34 36 37 37 38 39 39 39 39 39 39 39 40 41 41 40 40
15 16 17 18 17 17 21 23 25 26 26 25 24 30 33 24 19 19 12 14 16 13 16 18 17 18 17 16 14 12 13 12 13 14 15 17 18 18 17 17 17 17 17 16 16 17 18 19 20 21 23 24 26 27 29 30 32 33 34 35 36 36 36 36 35 34 33 35 35 33 32 33 33 33 33 34 35 35 36 36 37 38 38 39 40 40 40 40 40 40 40 40 41 41 40 41 42
16 15 15 17 17 18 20 22 25 26 22 21 21 19 24 32 28 18 13 16 15 14 17 19 18 19 18 15 12 13 14 15 15 15 15 16 15 15 15 15 15 16 14 14 15 17 18 19 19 21 22 23 25 26 29 31 32 33 34 35 35 36 36 35 34 32 33 34 33 32 33 34 35 35 36 36 37 38 38 38 39 39 39 40 40 41 41 41 41 40 40 41 41 41 41 43 44
17 15 14 16 18 19 20 22 22 22 19 24 25 12 15 35 34 20 19 19 13 13 15 16 16 16 16 13 11 13 14 15 15 15 15 15 14 14 14 14 15 15 15 16 18 18 18 18 19 20 21 23 24 25 27 30 31 32 33 34 34 35 35 34 33 33 34 34 34 34 35 36 37 37 38 38 39 39 39 40 40 40 41 41 41 42 42 42 41 41 41 42 42 42 44 46 45
17 17 16 17 19 19 22 23 21 23 26 30 27 13 13 27 33 26 25 20 12 13 15 13 13 12 13 12 11 12 12 12 13 14 15 15 15 15 14 15 16 17 18 19 19 19 19 20 20 22 23 24 25 26 28 29 31 32 33 34 34 34 34 33 33 34 35 36 36 36 36 37 38 39 40 40 40 41 41 42 42 42 43 43 44 44 44 44 43 43 44 44 45 45 46 47 46
18 18 18 19 20 21 23 24 24 25 25 25 22 11 8 18 33 35 30 20 11 14 16 15 13 11 11 11 12 13 12 13 13 14 16 17 17 17 16 17 18 19 20 20 20 20 20 21 21 22 23 24 25 27 29 30 31 32 33 34 35 34 34 33 34 35 36 36 37 38 38 39 39 40 41 41 42 43 43 44 44 45 45 46 46 47 47 47 47 47 47 47 47 48 48 48 48
19 19 20 20 21 23 24 24 25 18 13 19 22 12 7 14 36 38 28 20 17 17 17 16 15 13 13 13 13 14 15 16 17 16 17 18 18 18 18 18 18 18 20 21 22 22 21 21 22 22 22 24 26 28 30 31 32 33 34 35 35 35 34 34 35 36 37 37 38 39 39 39 40 41 42 42 43 44 44 45 46 46 47 47 48 49 49 49 49 49 49 50 50 51 51 51 51
19 20 21 22 22 23 23 23 19 8 6 15 17 12 9 8 32 39 30 26 26 22 18 20 22 18 17 17 15 16 18 20 20 20 20 20 20 20 19 18 17 18 21 22 23 23 23 22 22 22 23 25 27 29 30 31 31 33 34 35 35 35 34 35 36 37 37 38 39 39 39 40 41 42 43 43 44 44 44 45 46 47 48 48 49 50 50 50 50 51 51 52 53 53 53 53 53
19 20 20 20 17 15 15 14 9 2 5 9 7 9 11 9 25 40 35 30 27 24 24 29 30 24 19 20 19 18 20 23 24 24 23 22 22 22 20 18 19 20 21 22 24 26 26 24 24 24 25 27 29 29 30 31 32 33 34 35 36 35 35 36 38 38 38 39 39 39 40 41 42 43 43 43 43 43 43 44 46 47 47 48 49 49 49 50 50 51 52 53 54 54 54 55 55
19 20 18 12 8 6 5 5 3 4 8 8 6 7 11 18 33 40 35 32 29 29 33 35 32 26 20 20 22 22 22 23 26 27 27 26 25 23 21 20 21 22 23 24 26 28 28 28 28 29 29 29 30 30 31 31 32 33 33 34 35 35 36 37 38 38 38 38 39 39 40 41 42 42 42 43 42 42 43 44 46 46 47 48 48 48 49 49 50 51 52 53 53 54 54 55 55
15 17 15 7 1 3 4 4 3 7 9 8 8 8 10 22 32 34 34 34 34 35 35 31 27 23 20 20 20 23 24 24 27 29 29 29 27 25 23 23 23 23 23 25 27 28 30 31 32 32 31 31 31 31 31 31 32 32 32 33 34 35 36 37 37 38 38 38 39 39 40 40 41 42 42 43 42 43 44 45 46 46 47 47 47 48 49 49 50 51 51 52 53 53 53 54 55
17 18 16 13 11 6 5 4 3 6 7 4 8 7 8 16 26 33 35 34 34 34 30 23 21 20 19 19 18 18 21 23 26 28 29 29 28 26 25 25 24 22 23 25 27 29 31 32 33 34 33 31 32 32 31 31 31 30 31 32 33 34 35 36 36 37 37 37 38 39 41 42 43 43 43 44 44 44 45 45 46 46 46 47 47 47 48 49 49 50 51 52 52 53 53 54 55
17 19 18 18 19 15 11 11 12 11 9 5 10 14 21 30 37 35 28 26 24 23 21 19 18 19 21 20 18 18 19 21 24 26 26 26 25 23 23 24 23 21 22 24 26 28 31 33 33 34 33 31 31 31 31 31 30 30 31 32 33 34 35 36 37 37 37 38 39 41 42 43 44 44 44 44 44 44 45 46 46 46 46 47 47 47 48 48 49 50 51 52 52 53 53 54 55
16 17 18 19 20 18 15 13 14 9 7 9 12 18 27 31 29 22 16 17 18 17 19 21 20 22 25 24 22 21 21 21 23 23 22 21 20 19 21 22 21 20 21 23 25 27 29 31 33 33 32 31 31 31 31 31 31 31 31 32 33 34 35 36 37 38 38 39 41 42 43 43 44 44 44 44 45 46 46 46 47 47 47 47 47 47 48 48 49 50 51 52 52 53 54 54 55
23 22 21 19 17 17 13 7 6 2 4 8 9 13 18 15 15 19 18 16 15 16 20 22 21 23 26 25 23 22 22 22 21 20 18 18 18 19 21 21 21 21 22 23 24 26 27 30 31 32 31 32 33 34 34 34 34 34 34 35 35 36 37 38 39 40 40 41 42 43 43 44 44 44 45 45 46 47 47 47 48 48 48 48 48 48 48 49 50 51 51 52 53 53 55 55 56
27 27 25 20 14 12 9 5 4 2 4 6 4 7 9 8 12 20 20 16 16 16 19 19 20 21 23 24 23 20 19 19 19 17 17 18 21 23 24 24 25 24 24 24 25 26 27 30 31 31 31 32 33 34 35 35 35 36 37 37 38 39 40 41 42 43 43 44 45 45 46 46 46 45 46 46 47 48 48 49 49 49 49 49 49 49 49 49 50 51 52 53 54 55 56 56 57
27 28 28 25 20 16 12 10 7 3 3 5 5 6 5 6 11 14 13 15 15 15 15 14 14 15 16 18 18 17 16 17 19 20 22 23 24 27 28 28 28 27 26 26 26 28 29 30 31 31 31 31 32 34 34 35 35 36 37 37 38 39 40 41 42 43 45 46 46 47 48 48 48 48 48 48 48 49 49 50 50 50 50 50 50 50 50 51 52 53 53 54 55 56 57 57 58
27 26 26 25 23 20 16 18 20 13 6 2 3 4 1 3 8 9 10 12 12 12 12 12 12 13 14 14 14 16 18 19 21 22 24 25 26 28 28 28 28 27 27 27 27 29 30 30 30 30 30 32 33 34 35 35 36 36 37 38 39 40 41 42 43 44 46 47 47 48 48 48 49 49 49 49 50 50 50 50 51 51 51 51 52 52 52 53 54 55 55 56 56 57 58 58 59
31 28 26 24 21 18 12 13 20 20 12 6 3 4 4 3 7 10 13 13 12 14 14 14 17 17 18 19 19 20 21 20 20 20 20 21 23 25 26 26 27 27 27 27 27 29 30 30 31 31 32 33 34 34 35 36 36 37 37 38 39 40 41 43 45 46 47 47 48 48 48 48 49 50 49 50 51 50 51 51 51 52 52 53 54 54 55 55 56 57 57 57 58 58 59 59 59
Wind_Direction
271 271 269 267 267 270 272 274 275 271 267 264 265 264 265 266 265 267 268 272 275 275 275 273 269 259 251 247 245 244 241 241 244 237 247 271 275 271 261 242 237 238 239 237 232 227 225 225 223 221 228 235 240 226 222 241 247 253 248 236 229 226 231 231 228 225 230 233 231 235 239 243 243 245 245 241 236 229 236 239 236 240 244 246 246 248 251 251 252 254 256 258 260 261 262 263 263
274 272 269 266 265 266 268 271 269 268 264 261 265 265 266 266 265 267 268 272 275 273 272 270 266 260 257 256 249 246 245 240 244 248 257 266 268 273 270 247 233 231 236 239 236 228 225 226 222 223 229 234 230 217 226 245 260 263 245 235 231 227 233 237 238 235 239 242 240 244 246 249 248 249 249 247 242 236 240 241 240 242 245 249 250 252 255 256 257 259 259 260 261 262 263 263 263
277 275 270 265 262 262 263 264 260 262 261 260 269 270 267 267 266 267 268 274 278 275 270 266 262 257 254 250 243 243 246 242 243 249 255 261 266 269 269 255 234 229 231 235 237 232 230 229 225 226 229 227 218 213 223 238 249 252 242 240 245 240 240 243 246 245 245 244 245 247 248 250 251 252 251 250 247 244 245 245 245 245 247 252 254 254 256 258 259 260 260 261 261 261 262 262 263
279 275 269 263 258 258 258 258 257 257 257 262 272 273 270 269 266 266 271 279 282 277 270 264 256 250 247 247 243 241 244 244 246 251 256 259 262 262 261 254 238 232 231 232 234 235 235 232 229 230 228 220 214 214 221 233 236 234 230 239 254 258 257 257 255 251 250 249 248 249 250 252 253 254 256 256 255 252 251 251 252 252 254 257 257 255 256 258 259 260 260 261 261 261 262 263 263
272 270 265 260 252 254 254 257 257 255 261 267 272 275 275 272 270 272 277 278 278 272 265 260 252 246 243 244 243 242 245 249 250 254 258 258 258 259 257 250 242 237 236 235 232 234 234 230 228 229 225 215 211 217 227 230 234 239 228 228 246 257 259 259 260 257 256 256 254 254 254 255 255 256 259 262 261 260 258 257 258 258 260 261 260 259 260 260 260 260 260 261 260 260 261 261 262
261 267 267 261 251 253 253 256 260 264 275 276 272 275 275 275 275 277 278 273 267 261 255 251 249 244 241 243 244 244 248 250 252 255 257 255 253 254 255 252 246 238 235 232 227 228 227 226 227 227 222 212 208 222 236 234 236 244 234 234 246 256 258 256 257 259 260 260 260 260 260 259 259 259 260 261 262 262 262 262 263 264 265 265 265 266 265 264 264 262 260 260 259 259 259 259 260
258 265 267 262 257 256 256 262 270 277 283 276 273 276 273 274 276 276 274 265 253 245 245 245 244 240 240 244 246 247 250 251 253 253 251 250 249 249 251 252 248 234 229 225 219 217 218 224 230 232 228 221 219 222 232 236 239 242 239 242 245 250 256 255 256 261 263 263 264 264 263 262 262 263 262 263 264 265 264 264 265 267 267 266 268 268 267 267 266 265 262 261 260 260 259 259 259
257 261 265 258 256 258 262 270 278 281 283 278 277 276 268 267 264 263 263 258 251 243 242 245 245 244 243 246 248 250 252 253 253 251 246 243 243 244 244 245 242 228 221 217 214 215 217 224 229 233 231 229 230 224 224 230 235 240 241 242 240 241 247 253 257 262 264 264 266 268 268 267 266 267 267 266 265 266 265 264 265 265 264 266 268 268 266 265 265 264 264 263 262 261 261 261 261
260 259 261 258 258 261 266 276 282 277 278 284 281 273 267 265 259 258 260 260 258 254 250 248 250 251 250 250 250 249 250 252 253 251 246 242 240 240 240 238 236 229 224 220 219 220 221 224 224 227 228 227 231 229 229 232 234 238 240 241 241 240 243 250 255 258 262 265 266 268 271 271 270 270 269 268 266 265 266 266 266 264 263 264 266 267 267 266 266 266 265 265 264 263 262 262 261
265 261 262 259 259 261 266 276 279 270 264 271 283 285 280 272 262 262 264 262 263 264 258 254 254 255 256 253 250 249 249 250 251 251 249 245 242 240 239 235 233 231 231 229 224 222 223 226 228 234 236 231 230 232 236 238 240 242 242 243 244 243 243 248 251 254 258 263 266 269 271 272 273 272 271 270 268 267 267 268 269 268 266 266 267 267 267 267 267 267 266 266 266 265 265 264 263
265 264 263 259 260 263 269 275 274 266 261 266 277 282 286 280 263 270 280 274 279 278 269 263 260 258 258 256 255 255 252 248 247 249 249 247 244 242 242 238 233 230 231 232 231 228 227 228 234 242 245 241 239 242 245 247 250 251 250 248 246 246 246 248 250 253 255 258 263 267 270 272 272 271 271 272 272 273 273 273 271 271 269 268 269 269 269 268 268 268 268 268 267 267 267 266 265
261 262 262 260 262 265 270 273 270 267 269 273 277 273 276 276 268 275 277 273 275 281 287 277 272 266 260 259 259 260 258 253 248 247 247 246 243 240 241 241 237 231 228 229 230 229 226 224 232 241 247 252 255 254 255 256 258 260 259 256 248 244 246 250 252 254 256 258 261 266 269 270 271 270 271 272 272 273 275 276 274 272 269 267 266 267 268 268 268 268 269 269 269 269 268 267 266
258 261 262 261 264 267 269 271 269 270 271 272 272 266 264 264 268 275 269 267 270 276 280 270 273 274 267 264 259 262 265 258 252 250 250 248 241 232 231 234 234 229 226 228 230 230 231 233 239 245 250 255 257 257 258 260 263 265 266 264 256 250 251 254 257 257 259 262 264 267 268 268 268 269 270 271 272 272 271 272 271 270 268 266 265 265 266 267 268 268 268 268 268 268 267 267 266
259 260 260 260 264 266 268 270 271 272 271 267 267 265 262 259 259 260 260 265 269 272 268 264 267 267 268 269 267 273 270 258 254 252 249 246 235 222 221 223 225 226 230 238 242 244 244 245 248 251 252 252 253 255 258 261 266 268 266 264 261 260 259 259 260 260 260 264 267 267 267 267 267 268 269 271 272 271 269 267 266 266 265 265 264 264 264 265 266 267 267 267 266 265 265 264 263
259 259 259 260 263 266 268 272 275 275 274 273 270 265 260 261 260 257 257 262 265 266 265 265 265 265 270 273 275 272 256 250 248 246 244 235 223 216 220 223 225 228 235 242 247 248 247 246 248 249 251 252 253 255 260 265 267 268 266 264 262 262 262 262 261 260 260 262 265 266 266 267 267 268 269 271 272 271 267 264 263 262 263 263 263 263 263 262 262 262 263 263 263 262 262 262 261
259 260 260 260 264 268 271 275 276 274 275 275 271 264 258 258 259 257 259 265 271 275 272 269 265 265 270 271 269 261 249 246 241 236 233 225 218 218 225 229 232 234 238 243 246 247 245 244 245 247 251 255 257 261 265 267 266 266 266 264 263 262 261 261 260 259 259 260 263 265 266 267 268 269 270 271 270 269 266 263 262 262 263 263 262 261 260 258 257 257 258 258 259 258 259 259 260
260 260 261 263 268 271 274 277 276 275 276 273 268 261 254 252 256 256 261 268 275 280 279 276 271 267 267 265 263 259 251 248 243 233 225 222 223 224 227 234 239 241 244 245 247 249 248 246 246 249 252 256 260 263 265 265 266 266 265 264 263 263 262 260 258 258 259 260 263 266 267 269 270 271 272 272 269 266 264 263 263 263 263 262 260 258 256 255 254 253 253 253 254 255 256 257 259
259 260 262 265 270 275 278 279 278 280 278 271 265 259 254 257 264 266 268 272 276 278 278 279 276 271 269 266 263 259 252 248 246 239 228 224 227 227 229 235 242 247 250 251 253 253 252 251 252 253 255 256 258 260 262 264 266 266 265 263 262 262 261 260 258 258 259 260 263 266 267 268 269 271 272 272 269 265 264 263 264 264 263 261 258 255 253 252 250 250 250 250 251 253 255 256 258
258 258 261 265 272 277 284 285 282 283 281 278 273 269 265 268 273 274 274 276 278 276 277 280 279 273 270 269 265 260 255 249 247 244 238 232 232 235 237 239 242 246 249 252 255 255 253 252 253 255 256 256 257 260 263 265 266 266 265 264 262 260 258 258 257 256 257 259 262 264 265 267 268 270 271 270 267 265 265 266 266 265 263 259 256 253 251 249 247 247 248 249 251 254 256 258 260
255 256 260 265 270 275 286 291 288 287 288 289 286 281 277 277 278 276 277 278 275 273 277 281 279 274 269 266 264 260 255 250 247 245 243 241 240 242 243 244 245 247 249 250 250 250 250 249 250 251 253 256 258 261 264 267 267 267 267 265 263 261 257 255 254 254 256 257 260 262 264 265 266 268 269 266 265 266 267 268 268 266 262 259 256 253 250 248 247 247 249 251 254 257 260 263 265
254 256 261 266 269 274 285 293 294 293 293 293 293 291 289 286 282 279 279 277 274 276 281 280 276 271 266 262 261 259 256 251 249 247 245 244 245 245 247 247 249 250 250 248 247 246 246 248 251 254 257 260 262 264 266 267 267 267 266 266 265 262 258 255 254 254 255 256 258 261 263 263 266 266 264 263 263 266 268 268 267 264 261 258 256 252 249 249 249 251 253 256 259 263 265 267 268
256 258 263 267 272 277 285 292 293 293 294 295 296 296 296 292 286 283 281 278 280 286 283 276 270 266 262 260 258 256 255 253 250 249 248 247 247 248 248 249 249 250 249 250 250 249 250 252 255 258 261 264 266 267 267 268 268 268 267 267 266 264 260 256 255 255 255 256 257 259 262 263 264 263 261 261 263 265 266 265 262 260 257 255 252 250 248 249 252 256 259 263 265 267 268 268 268
260 264 268 273 279 283 286 288 288 290 292 294 295 295 296 293 290 286 281 280 288 291 281 273 267 261 258 257 256 255 255 255 253 252 252 251 250 250 250 250 249 250 251 252 253 252 253 255 258 260 261 263 266 268 268 269 269 269 269 268 267 265 262 259 257 256 254 254 256 258 260 262 262 260 259 259 262 263 262 260 258 256 253 250 248 247 248 251 255 259 263 266 268 269 268 267 265
263 270 276 280 284 285 286 283 283 286 288 291 292 293 294 293 290 284 281 285 291 287 278 270 265 261 257 255 256 257 257 256 254 253 253 252 251 251 250 250 249 249 250 250 252 254 255 258 261 263 262 262 264 267 268 269 270 270 270 270 269 267 264 261 258 256 255 255 256 257 258 259 259 257 257 258 260 260 258 256 254 252 249 246 246 246 249 253 258 262 265 267 268 267 266 264 264
265 273 279 282 283 284 282 280 282 283 285 289 290 291 291 290 286 282 283 292 292 284 274 267 265 264 261 258 256 257 258 257 255 253 252 251 251 250 250 250 250 250 251 252 253 255 257 260 263 264 264 263 263 265 267 268 269 270 270 271 270 268 266 260 256 254 254 255 256 256 256 256 255 254 255 257 258 257 255 253 252 249 245 244 245 248 251 255 260 263 265 266 266 265 264 264 265
266 273 277 279 281 283 281 281 282 283 286 288 288 288 287 286 283 281 287 296 291 281 274 271 270 268 266 262 259 257 257 256 255 253 252 251 250 251 251 252 253 253 254 254 254 255 258 261 263 266 266 266 264 264 266 267 267 268 269 269 268 266 263 256 253 253 253 254 254 254 254 254 254 254 255 256 255 254 252 251 250 246 242 243 246 249 253 257 260 262 264 265 265 264 264 265 266
270 274 276 278 279 280 280 280 281 283 285 286 285 284 282 281 278 281 294 295 284 278 277 277 274 272 270 266 261 259 256 255 254 252 249 248 249 251 252 254 255 256 256 255 256 258 260 261 263 265 266 267 266 265 266 266 266 266 266 265 264 264 260 255 253 253 253 253 253 253 252 253 253 255 255 255 253 251 251 249 246 243 242 243 246 250 254 257 260 263 264 265 265 265 265 266 268
272 274 276 277 277 277 278 279 281 283 284 284 284 282 279 275 274 285 299 286 277 278 279 279 276 273 268 264 261 259 256 254 252 251 250 251 252 254 255 257 259 258 257 257 258 259 259 260 262 264 265 265 265 264 264 264 264 263 262 261 261 262 260 257 256 255 255 254 253 252 252 252 253 255 255 253 251 250 249 246 242 241 243 244 248 252 255 259 261 263 264 264 265 265 265 266 268
274 275 277 278 277 278 279 281 282 282 284 284 287 285 279 275 280 292 293 277 278 280 280 279 276 273 267 263 260 258 256 254 251 251 253 254 255 256 256 258 259 258 258 259 258 258 259 261 263 264 264 264 264 263 262 261 261 260 259 259 259 259 260 260 261 259 257 255 253 253 252 253 254 254 253 251 250 249 246 243 241 242 245 247 250 253 257 260 262 263 263 263 264 265 265 266 268
276 278 279 280 280 281 282 283 282 282 284 285 290 289 284 282 288 291 284 279 283 283 282 281 276 272 269 266 262 259 256 253 251 251 253 254 254 255 255 256 257 258 258 258 258 259 261 262 262 263 262 263 263 262 261 259 259 258 258 258 258 259 261 262 262 260 257 255 254 252 251 252 254 254 253 251 250 248 245 242 241 243 247 250 252 255 257 259 260 261 262 262 263 264 265 266 269
278 280 281 283 284 284 284 285 283 284 285 285 290 288 288 294 295 291 288 288 289 287 285 281 277 273 270 268 265 261 257 254 252 251 249 249 250 251 253 254 255 257 258 259 261 263 263 262 261 260 259 259 258 258 258 258 257 257 257 258 259 261 263 263 262 260 257 255 253 251 251 251 252 253 253 252 251 249 245 243 243 245 248 251 254 256 257 258 260 261 262 263 263 264 266 268 270
278 280 283 284 284 286 287 287 285 286 285 285 288 286 289 301 305 299 297 294 292 290 286 283 280 277 274 271 267 263 259 255 252 250 248 247 248 250 252 254 255 257 259 261 262 262 262 261 260 258 256 255 254 255 255 255 254 254 256 258 260 262 264 264 263 260 257 254 253 252 250 250 251 252 253 254 252 249 246 244 244 246 248 252 254 256 257 259 260 261 262 264 265 266 267 269 270
277 280 283 284 286 290 292 293 292 292 289 288 289 287 292 306 316 309 303 299 296 292 289 287 284 280 275 271 269 267 263 259 256 254 252 250 251 252 253 254 255 257 258 260 260 261 262 262 260 257 255 253 251 251 250 251 251 253 255 257 259 260 261 262 261 259 256 254 254 253 251 249 249 251 252 253 251 249 247 245 245 247 250 252 254 256 258 258 259 261 262 264 265 266 267 269 270
279 281 282 285 289 291 296 301 302 299 294 293 292 290 297 310 316 312 308 304 300 293 288 285 281 278 275 273 272 272 270 267 264 261 257 255 254 253 254 254 255 256 257 258 259 260 261 261 259 257 254 251 248 247 247 247 249 250 253 255 258 259 260 261 260 259 257 255 254 253 250 249 248 249 250 250 249 248 247 246 247 248 250 252 254 256 257 258 260 261 263 265 266 267 268 269 271
284 284 286 291 294 295 301 308 308 302 298 298 296 297 304 312 315 317 318 310 298 287 282 280 278 277 277 278 277 275 274 272 271 269 263 259 256 254 254 254 254 255 256 257 258 258 259 259 258 257 255 253 250 248 247 247 248 250 253 256 258 260 262 263 263 262 260 256 253 251 249 248 247 247 247 247 247 246 246 246 247 248 250 251 253 255 257 260 261 262 264 265 266 267 269 270 272
287 290 293 296 298 302 311 313 307 304 302 302 303 304 307 313 322 325 321 308 293 287 286 284 281 280 280 279 278 278 277 277 273 267 261 257 255 254 253 254 254 255 256 257 257 257 257 258 259 260 259 257 254 251 250 249 251 254 257 258 261 264 266 266 264 262 258 254 252 250 249 248 247 246 246 246 245 244 244 245 246 248 250 252 254 256 258 260 260 261 262 264 266 268 270 272 273
291 294 296 297 298 306 320 313 304 306 305 306 311 308 305 314 325 327 318 304 296 295 297 294 290 283 279 277 280 283 280 277 267 260 259 258 258 258 258 258 258 259 259 260 260 261 261 261 262 263 263 260 257 255 254 254 255 257 259 261 263 266 266 263 260 257 254 251 249 248 248 248 247 246 245 245 245 244 245 246 248 250 253 255 256 257 258 258 259 261 262 264 266 267 269 270 271
294 295 297 299 301 308 317 311 304 308 303 306 312 306 306 319 326 324 315 306 302 303 304 306 305 295 286 283 282 282 279 273 268 265 266 266 266 266 265 265 264 264 265 265 265 265 264 263 263 262 261 260 260 259 257 258 258 259 261 263 263 262 260 258 256 253 250 248 245 245 245 246 247 248 248 248 249 249 250 251 253 255 256 257 258 258 258 259 259 260 261 262 263 264 265 266 267
297 297 297 300 307 309 311 308 305 306 302 307 313 308 312 325 327 327 320 309 310 313 314 320 315 304 293 286 282 280 278 271 266 267 267 266 266 265 265 265 266 265 265 264 263 263 262 262 262 262 262 263 263 262 261 262 262 261 262 262 261 259 257 255 252 249 247 245 244 244 245 247 250 252 254 255 255 256 256 256 257 257 257 257 257 257 257 257 258 258 259 260 261 262 263 264 266
296 296 295 299 308 306 303 304 305 305 303 308 313 310 315 326 332 336 326 314 320 316 317 321 311 304 296 287 285 278 271 266 266 270 267 264 263 261 262 262 262 261 260 261 261 262 262 263 265 265 265 266 265 264 264 264 263 261 260 259 258 257 255 254 252 250 249 248 247 248 250 253 255 257 259 260 259 259 258 257 256 256 256 256 256 256 256 257 257 258 259 260 261 262 263 265 266
293 293 294 297 303 297 295 301 303 306 306 308 314 314 316 321 331 336 326 315 317 307 313 318 306 301 297 293 294 279 265 266 274 274 267 264 263 262 260 258 259 260 260 262 262 260 259 259 261 261 261 261 261 261 262 261 260 259 259 258 258 258 258 258 258 258 257 256 254 255 257 257 257 258 257 257 257 256 256 255 255 255 256 257 258 258 259 258 258 259 259 260 261 262 263 264 264
292 293 292 294 297 293 294 298 303 309 309 309 319 324 317 316 322 330 329 320 308 301 315 319 310 302 298 297 290 275 272 274 275 270 263 263 264 262 260 259 259 261 261 260 256 255 256 258 259 260 260 261 261 261 261 261 262 262 261 261 262 263 264 264 266 266 263 260 258 256 255 253 253 253 254 255 255 256 257 258 258 259 260 260 261 261 261 260 260 260 260 261 261 262 263 263 263
290 294 295 292 293 294 293 297 302 305 302 303 309 303 293 310 320 330 333 327 306 307 325 320 313 307 302 302 287 272 272 270 267 261 255 258 260 260 262 263 264 264 262 258 259 261 262 264 264 264 265 265 266 265 264 264 264 265 265 265 266 266 267 268 269 267 264 262 259 256 254 253 253 254 255 256 257 259 260 261 261 262 263 263 263 263 263 263 262 262 261 261 262 262 262 263 265
285 293 295 291 292 293 294 297 298 297 298 300 299 281 258 295 313 322 325 324 306 311 330 325 311 306 307 308 300 289 277 266 262 253 250 252 254 257 261 264 264 263 262 262 264 265 263 262 262 263 264 265 267 267 266 267 267 267 267 267 267 267 268 269 268 266 264 263 261 260 258 257 256 257 257 258 259 260 261 262 263 264 264 265 265 265 265 265 264 263 262 262 262 263 263 264 265
284 291 292 290 293 293 294 296 294 296 302 298 291 276 234 278 302 313 318 319 309 310 324 328 312 298 303 305 299 294 282 269 262 250 248 249 251 257 259 260 261 261 262 263 262 260 259 260 260 262 264 266 267 266 265 265 265 266 266 266 266 266 267 268 266 265 264 264 263 262 261 260 259 259 259 260 261 261 262 263 263 264 264 265 265 265 265 265 264 264 264 263 263 263 263 263 263
283 288 288 289 291 293 295 294 293 297 293 284 283 266 211 282 301 309 316 319 321 316 314 321 314 291 287 295 291 285 276 269 264 256 252 250 253 259 261 264 266 265 264 262 260 259 258 259 261 264 268 269 268 266 265 264 264 264 264 264 265 265 266 265 264 263 262 262 261 261 261 261 260 260 260 260 260 261 261 262 263 264 264 264 264 265 265 265 265 265 265 265 264 263 263 263 263
283 285 285 290 292 292 292 287 290 303 265 272 280 252 202 276 302 307 314 318 323 321 310 315 319 302 281 281 284 283 277 271 267 263 259 256 257 261 266 273 276 272 269 266 263 261 260 262 265 271 275 276 273 269 266 265 264 263 263 264 264 264 264 263 262 262 261 261 261 261 261 260 260 259 259 259 259 260 261 262 263 263 263 263 264 264 265 265 265 265 264 264 263 263 263 263 263
281 282 285 293 297 292 287 278 275 257 253 270 271 238 204 220 293 306 314 317 322 322 316 318 320 313 289 272 270 276 278 274 270 266 265 263 262 264 269 277 281 281 281 278 273 268 266 267 271 278 283 284 279 272 267 265 264 264 264 264 265 265 264 263 263 262 261 261 262 262 261 261 261 261 261 261 261 261 262 262 261 261 262 262 262 263 263 263 263 263 263 263 263 263 263 263 263
279 280 281 290 311 315 285 261 247 225 249 266 248 227 215 243 281 303 315 318 320 320 321 322 319 314 302 280 265 263 271 276 275 271 270 269 267 265 269 275 281 284 287 286 282 278 273 271 275 281 288 288 282 274 270 268 266 266 267 267 267 266 265 264 264 264 264 264 264 263 263 263 263 263 263 263 263 262 261 261 261 260 261 261 262 262 263 263 263 263 264 264 264 264 264 264 264
280 278 273 259 287 355 290 262 283 269 264 258 236 233 241 257 280 303 313 314 317 319 321 321 316 311 307 298 280 265 266 273 276 276 277 277 275 270 269 272 278 282 283 282 282 280 276 275 278 283 289 290 284 277 273 270 269 269 269 269 268 267 266 266 266 266 265 265 265 265 265 265 264 264 265 264 264 263 262 262 262 262 262 263 263 264 264 264 265 265 265 265 266 266 265 265 265
278 275 267 251 244 250 261 252 245 278 288 238 204 222 240 256 283 302 309 312 316 316 316 315 311 305 301 301 294 278 272 271 273 276 278 282 280 273 268 270 273 276 274 273 274 276 275 277 279 282 287 290 286 279 275 273 272 271 269 268 267 267 267 267 266 266 266 266 266 266 266 266 266 266 266 265 265 264 264 264 263 263 263 263 264 264 265 265 265 265 266 266 266 266 266 266 266
275 269 256 252 256 252 250 262 264 279 304 259 216 237 257 272 290 303 311 317 314 307 305 304 300 296 294 293 288 281 275 271 272 273 276 282 281 273 268 268 267 264 262 262 265 268 271 274 276 278 282 286 285 279 276 275 274 272 271 270 270 270 269 269 269 269 268 268 268 267 267 268 268 269 268 268 267 266 266 265 264 264 264 265 265 265 265 266 266 266 266 267 267 266 266 266 266
270 265 257 259 267 260 252 271 279 281 295 273 241 251 271 285 301 317 323 309 295 283 287 293 290 287 289 290 289 286 277 268 266 268 273 277 272 262 259 258 253 248 249 254 258 262 266 268 270 273 277 283 284 280 275 274 274 274 273 273 272 271 271 271 271 271 271 270 270 270 270 270 270 270 270 269 268 267 267 266 266 266 267 267 267 267 267 267 267 267 267 268 268 267 267 267 267
266 263 267 269 270 262 249 264 306 310 276 274 247 260 288 304 317 327 324 304 290 280 278 281 279 278 283 290 296 293 280 266 261 264 268 267 258 249 247 245 240 241 248 254 260 264 266 267 269 272 276 281 285 282 278 275 275 274 274 273 272 272 271 272 272 272 271 271 271 271 271 271 271 271 271 270 269 269 268 268 268 268 268 268 269 269 269 269 269 269 269 269 269 269 268 269 268
271 267 268 267 261 260 241 227 292 302 268 284 271 285 316 337 326 328 325 308 300 292 281 280 279 277 282 289 291 286 274 264 262 266 267 263 257 252 247 241 238 242 251 258 263 267 268 269 271 273 277 280 283 282 279 277 278 278 278 278 277 277 277 277 277 276 275 275 274 274 273 273 272 271 271 270 270 270 270 270 270 270 270 270 270 270 271 271 272 272 272 272 272 271 270 270 270
282 272 264 259 257 259 251 241 246 234 262 290 308 322 12 26 346 341 327 307 307 307 306 308 302 294 292 292 291 288 286 283 279 277 274 267 259 254 247 241 241 245 252 259 265 268 269 270 272 275 277 278 279 277 275 275 275 276 277 278 278 279 279 280 280 280 279 279 278 277 276 276 274 273 272 271 271 271 272 272 272 272 272 272 272 273 273 274 275 275 275 274 274 273 272 272 271
286 276 268 266 264 261 260 262 259 250 246 257 296 306 49 61 358 346 322 315 322 325 329 330 321 316 310 307 305 300 298 295 288 281 274 263 252 247 243 242 246 251 257 262 266 268 270 272 274 275 275 273 272 271 271 271 272 273 274 275 276 277 278 278 278 278 277 277 277 276 276 276 275 274 274 274 273 273 274 274 274 274 274 274 274 275 276 276 276 276 276 276 275 274 274 273 272
281 279 279 279 275 266 261 271 267 256 243 233 253 280 249 260 314 309 298 304 315 319 321 315 311 313 312 309 308 305 303 300 294 284 272 260 249 245 245 248 253 257 261 264 266 269 271 272 273 273 272 271 271 270 271 272 274 275 276 276 277 278 278 278 277 276 276 275 274 274 273 273 273 273 274 274 274 275 275 275 275 275 275 276 276 276 277 277 277 277 277 276 275 275 274 273 272